sat.trackr.live / text

‹ back to catalog

STARLINK-37437

NORAD 69170 · 2026-111Y

PAYLOAD ACTIVE UNKNOWN

§ Identity

Operator
Country
US
Launch date
2026-05-21
Launch site
AFETR
Launch vehicle
Mass (kg)
RCS (m²)

Purposes: comms

External: N2YO · Heavens-Above · Gunter

§ Orbital elements

Epoch: 2026-09-19T19:12:52.291872Z

Period
93.85 min
Inclination
53.1592°
Eccentricity
0.0001106
Mean motion
15.34410265 rev/d
Perigee alt
461.9 km
Apogee alt
463.4 km
Semi-major
6,840.8 km
B*
7.2237e-4
RAAN
68.8222°
Arg perigee
95.5766°
Mean anomaly
264.5363°
Rev number
1,879

§ Raw data

STARLINK-374371 69170U 26111Y   26262.80060523  .00024117  00000+0  72237-3 0  99942 69170  53.1592  68.8222 0001106  95.5766 264.5363 15.34410265 18799

JSON: /api/v1/satellites/69170 · /tle

For live sub-satellite position, see the globe view (requires WebGL).

§ Visibility from observer

Set your observer location to see the next 7 days of passes ≥ 10°. The values pass through the URL so the page stays shareable.

No JS? Fill the form by hand. The geolocation button needs JavaScript.